Wind_Speed
44 46 47 49 50 50 52 53 54 55 57 58 59 60 60 61 62 62 61 60 59 58 57 57 55 53 51 50 48 47 47 47 47 47 47 46 45 44 42 42 41 41 40
42 44 46 48 49 50 51 52 54 55 57 58 58 59 60 60 61 62 62 63 62 61 60 59 57 55 53 52 50 49 49 47 47 47 47 47 46 45 45 44 43 42 42
35 37 39 42 44 46 47 48 50 53 55 57 59 59 60 61 61 61 62 62 62 62 61 60 58 56 55 54 52 51 50 49 48 48 47 46 45 45 46 45 44 43 42
30 32 34 36 38 39 41 43 45 48 50 53 55 57 59 60 60 60 60 61 61 61 61 61 60 58 56 55 53 52 51 50 48 48 48 47 47 46 45 44 44 44 43
25 26 28 30 32 33 35 37 40 43 45 48 50 52 54 56 58 59 59 59 60 60 60 60 60 60 58 56 54 53 53 51 50 49 48 47 47 46 47 46 46 46 46
20 21 21 22 25 26 29 33 35 38 40 42 44 46 48 51 54 56 57 57 57 59 59 59 59 60 59 57 55 55 54 51 50 50 49 50 50 49 49 48 47 48 48
15 16 17 18 19 21 23 26 29 30 32 35 38 41 43 46 49 51 53 54 55 56 57 58 58 59 60 59 58 58 56 52 51 51 50 50 50 51 51 50 50 50 50
10 11 13 13 14 15 16 18 21 24 27 29 32 34 37 40 43 46 49 50 52 53 55 56 57 57 59 60 59 58 56 54 52 51 52 52 51 51 51 52 51 51 50
8 9 9 8 8 9 11 12 15 17 21 23 26 29 32 34 36 40 43 45 46 49 51 53 54 54 56 57 58 58 56 56 54 53 53 53 54 52 52 52 52 51 51
6 6 5 4 4 3 3 4 7 9 11 15 19 22 26 28 31 35 38 41 43 45 46 48 50 51 52 55 57 58 56 55 55 54 54 54 54 54 53 53 53 53 53
6 6 7 6 5 5 4 3 3 4 7 8 11 15 19 21 24 28 32 36 39 41 43 44 46 48 49 51 54 55 56 55 53 53 53 55 54 54 53 53 55 55 55
9 9 9 8 7 7 6 5 3 3 5 7 8 10 13 15 18 21 25 30 34 36 39 41 43 45 46 48 50 52 53 54 52 51 51 52 52 52 52 54 56 57 58
10 11 11 11 10 8 8 6 5 4 3 4 6 8 10 12 14 17 19 23 27 31 34 37 39 41 44 45 47 48 50 51 51 50 50 51 52 53 54 56 57 58 59
10 10 12 12 12 11 10 8 5 4 4 3 4 5 6 9 10 14 16 19 23 25 28 32 35 37 39 42 44 45 46 47 48 49 51 52 54 55 55 56 57 58 57
11 12 12 13 13 13 13 12 10 8 7 5 3 3 3 4 6 9 12 15 19 23 25 28 31 33 36 38 40 41 43 46 47 49 51 53 54 55 56 57 58 58 59
10 11 12 13 13 13 12 12 11 10 9 7 6 6 5 5 6 7 9 12 16 19 22 25 29 31 34 36 38 41 43 46 48 50 51 52 53 55 55 56 58 59 60
10 11 11 12 12 13 12 12 11 10 9 9 8 8 8 8 9 9 11 13 15 18 20 23 27 29 32 34 37 39 42 45 48 49 51 53 54 55 57 58 60 60 61
11 11 11 12 12 11 11 11 11 11 10 11 11 11 11 12 13 14 15 17 18 20 23 26 29 32 35 37 39 41 43 45 47 50 52 54 56 58 59 61 62 62 63
11 12 12 13 13 13 12 12 12 12 13 13 13 14 15 16 16 17 18 20 22 23 26 29 32 35 37 39 41 43 45 47 49 51 54 56 58 60 62 64 65 66 67
12 13 13 14 14 14 14 14 14 14 15 16 16 17 18 20 21 21 22 24 25 27 29 32 34 36 39 41 43 46 48 50 52 54 55 58 60 62 64 65 66 67 67
15 15 16 16 16 17 17 17 17 17 18 19 20 21 22 23 24 25 26 27 29 31 34 35 37 39 41 43 46 48 51 53 55 56 58 60 62 64 66 67 67 67 67
17 18 18 19 19 19 20 20 20 21 21 22 23 24 25 26 28 29 31 32 34 36 37 39 41 42 44 46 48 50 53 56 58 59 60 61 63 65 66 67 68 67 67
19 20 20 21 21 22 22 22 23 24 25 26 27 28 30 31 32 34 35 37 38 40 42 43 45 46 48 49 51 53 54 56 58 60 61 62 63 64 65 66 67 67 67
21 22 23 23 24 24 24 25 26 27 29 30 31 32 33 35 37 38 40 41 43 44 45 47 48 49 50 51 52 53 55 56 58 59 60 61 62 63 64 64 65 65 65
23 24 25 25 26 27 28 28 29 30 31 33 34 35 37 39 41 42 44 45 46 47 48 49 50 51 52 52 53 53 54 55 56 58 59 60 60 61 61 61 61 60 60
26 27 28 28 29 30 31 32 33 34 35 36 38 39 41 43 44 45 47 48 50 50 51 51 52 52 53 52 52 53 54 55 56 57 58 58 57 57 57 57 57 56 56
Wind_Direction
262 261 260 259 258 257 255 254 252 251 249 248 247 245 244 242 242 240 240 240 241 241 241 241 241 243 244 245 247 249 251 253 254 255 255 256 255 257 258 259 261 262 263
264 263 261 260 259 257 256 254 252 251 249 248 246 245 244 242 242 241 240 240 241 241 240 240 241 242 243 243 245 248 250 251 253 255 256 256 257 258 259 260 261 262 264
266 264 263 261 260 258 255 253 252 250 248 247 245 245 243 242 241 241 241 241 241 240 240 240 240 241 241 243 244 247 250 251 252 254 256 257 258 260 260 260 261 263 264
269 267 266 265 262 259 255 253 250 249 247 245 244 244 244 243 242 241 241 241 240 240 239 239 239 239 240 241 244 246 248 250 252 253 255 257 258 259 259 259 261 262 264
275 274 271 267 263 259 255 254 250 248 246 245 244 243 242 241 240 241 241 240 239 239 239 240 239 239 240 241 243 245 247 249 251 252 254 256 258 260 260 261 262 264 265
283 280 277 272 266 261 258 256 251 248 246 245 244 243 241 240 240 239 239 239 239 238 238 239 239 239 239 241 243 244 246 248 250 251 253 256 258 260 262 263 264 266 266
289 286 284 280 272 266 263 258 252 248 245 243 242 241 240 240 239 238 237 237 238 238 238 239 239 239 240 241 242 244 245 247 249 252 255 257 258 259 260 263 265 267 268
302 297 293 284 277 271 263 258 251 246 244 243 241 240 239 239 238 237 237 238 238 238 238 238 239 240 240 241 243 244 246 248 249 252 254 256 258 260 261 262 264 267 268
318 316 312 303 293 276 264 256 251 246 243 241 241 240 238 238 237 235 236 238 238 237 237 238 240 241 241 241 243 244 246 248 250 252 254 256 258 260 261 262 264 266 267
348 344 346 333 328 320 297 266 254 248 243 241 239 237 237 238 237 236 237 238 238 238 238 240 240 242 243 243 244 245 247 250 253 254 255 256 259 260 261 262 263 265 266
25 23 16 21 23 10 348 322 281 258 253 247 244 240 237 238 238 238 238 239 240 240 240 241 243 245 247 247 247 248 249 251 253 255 257 257 258 259 260 262 263 265 267
29 25 29 31 29 21 16 3 341 283 266 256 254 250 246 247 246 244 242 242 242 242 242 242 244 245 247 248 249 250 252 253 254 256 258 258 258 260 261 262 263 264 266
26 26 30 34 33 30 29 27 23 4 316 283 265 254 251 250 251 248 245 244 243 243 242 242 244 246 248 250 251 253 253 253 254 256 258 258 258 260 261 263 264 265 268
28 25 26 29 33 33 31 29 25 21 11 335 291 272 259 248 245 245 246 246 247 247 247 246 247 249 251 252 253 253 252 254 255 257 259 260 260 261 263 264 264 267 268
26 23 22 23 24 24 24 24 24 23 23 14 358 337 297 270 263 254 251 251 252 252 253 252 251 251 252 254 254 254 255 258 259 259 261 261 261 262 264 265 266 268 270
16 14 14 16 16 15 13 13 13 12 11 11 3 357 342 321 301 282 268 261 258 258 257 256 254 254 255 255 256 257 258 260 260 260 261 262 264 265 265 267 268 270 271
11 9 6 6 6 7 6 4 6 360 0 1 358 347 335 324 310 299 291 284 278 274 269 265 264 263 262 262 262 263 263 263 264 265 265 266 267 268 270 271 271 272 273
356 356 354 352 350 348 350 349 349 346 339 336 331 326 319 312 307 301 295 291 289 285 281 276 273 271 269 267 267 268 268 268 269 270 270 270 271 271 272 272 273 273 274
340 341 340 339 338 338 337 334 333 331 329 325 321 317 315 312 307 302 296 293 291 289 287 283 279 277 276 274 273 272 272 272 272 273 273 273 274 274 274 274 274 275 275
327 326 326 326 325 325 325 324 323 323 323 321 319 316 314 311 307 304 300 298 296 295 293 290 287 283 281 279 279 278 277 276 276 276 276 276 276 276 277 277 277 277 276
322 320 319 318 318 317 317 317 317 316 315 314 313 312 311 310 308 306 304 302 300 299 297 295 293 290 288 286 283 282 281 280 279 279 279 278 279 279 279 278 278 278 277
316 316 316 316 315 315 314 313 312 311 310 309 309 308 308 308 308 306 305 303 301 300 300 298 296 294 292 290 288 285 284 283 282 282 282 281 281 280 280 279 279 279 278
310 311 311 312 311 310 310 309 309 308 308 308 308 308 308 308 307 307 305 304 302 301 301 299 298 297 295 293 291 289 288 287 286 285 284 284 282 281 280 279 279 278 277
305 306 306 307 307 306 305 305 305 305 305 306 307 308 308 308 308 307 306 305 303 302 301 300 299 299 297 295 293 292 290 289 289 288 286 285 284 282 281 280 279 278 277
302 302 302 303 303 302 302 302 303 303 304 305 306 307 307 307 307 307 306 305 304 303 302 302 301 300 299 297 296 294 293 291 291 290 289 288 286 285 282 280 279 278 277
299 299 299 300 300 300 300 301 301 302 303 304 305 306 306 307 307 307 306 305 305 304 303 302 302 301 300 299 297 296 296 295 294 293 292 290 288 287 284 281 279 277 277
Height
5684 5683 5684 5685 5687 5689 5692 5695 5698 5700 5703 5707 5711 5716 5721 5725 5730 5735 5740 5744 5749 5753 5757 5761 5765 5769 5773 5776 5778 5781 5783 5785 5787 5788 5790 5792 5794 5796 5797 5798 5799 5800 5800
5673 5672 5672 5673 5674 5676 5678 5680 5683 5686 5689 5693 5698 5702 5707 5711 5716 5721 5726 5731 5736 5741 5745 5750 5754 5758 5762 5766 5768 5771 5773 5775 5777 5779 5781 5783 5785 5787 5788 5789 5790 5791 5791
5663 5662 5661 5661 5661 5663 5664 5666 5668 5671 5675 5679 5683 5688 5692 5697 5703 5708 5713 5718 5723 5728 5733 5738 5743 5747 5751 5755 5758 5761 5764 5766 5767 5769 5771 5773 5776 5778 5779 5780 5781 5782 5782
5654 5652 5651 5650 5650 5650 5651 5653 5655 5657 5660 5664 5669 5674 5679 5685 5690 5694 5699 5704 5709 5715 5720 5725 5731 5735 5739 5744 5748 5751 5753 5755 5757 5759 5761 5764 5766 5767 5769 5771 5771 5772 5772
5646 5644 5642 5640 5639 5639 5640 5641 5643 5645 5648 5651 5655 5660 5665 5670 5675 5680 5685 5690 5696 5701 5707 5713 5718 5723 5728 5732 5737 5740 5743 5745 5747 5749 5751 5753 5755 5757 5759 5761 5761 5761 5762
5639 5637 5634 5632 5631 5630 5630 5631 5632 5634 5637 5640 5643 5648 5652 5657 5662 5666 5671 5677 5682 5688 5694 5700 5706 5711 5716 5721 5725 5729 5732 5735 5737 5739 5740 5743 5744 5747 5748 5749 5750 5751 5752
5634 5632 5629 5627 5625 5623 5623 5622 5623 5625 5627 5629 5633 5637 5641 5645 5650 5654 5659 5664 5670 5676 5682 5688 5694 5699 5705 5709 5713 5717 5721 5724 5726 5728 5730 5732 5734 5736 5737 5738 5739 5740 5740
5631 5628 5625 5623 5621 5618 5617 5616 5617 5618 5620 5622 5625 5628 5631 5635 5640 5645 5649 5654 5659 5665 5671 5676 5682 5687 5692 5697 5701 5706 5710 5713 5715 5717 5719 5721 5723 5724 5725 5727 5727 5728 5729
5629 5626 5623 5620 5618 5615 5613 5612 5612 5613 5615 5617 5619 5622 5625 5628 5632 5636 5641 5645 5650 5655 5660 5665 5671 5676 5681 5685 5689 5694 5698 5701 5704 5706 5708 5709 5711 5712 5714 5715 5715 5716 5716
5629 5625 5622 5620 5617 5614 5612 5611 5610 5610 5611 5612 5614 5617 5620 5623 5626 5629 5633 5638 5643 5647 5652 5656 5661 5666 5670 5674 5678 5682 5686 5689 5692 5694 5696 5697 5699 5700 5701 5702 5703 5703 5703
5629 5626 5623 5620 5617 5614 5612 5610 5609 5609 5609 5610 5612 5614 5617 5619 5621 5624 5627 5631 5635 5639 5643 5648 5652 5656 5660 5663 5667 5670 5674 5677 5680 5682 5684 5685 5686 5687 5688 5689 5690 5690 5690
5630 5627 5624 5621 5618 5616 5613 5610 5609 5609 5609 5610 5611 5612 5614 5616 5617 5619 5622 5625 5628 5632 5636 5640 5643 5647 5650 5653 5656 5660 5662 5665 5668 5669 5671 5672 5673 5674 5675 5675 5676 5677 5676
5632 5629 5626 5623 5620 5617 5614 5612 5611 5610 5610 5610 5610 5611 5612 5613 5615 5616 5618 5620 5623 5626 5629 5632 5635 5638 5641 5644 5646 5648 5651 5653 5655 5657 5658 5660 5660 5661 5661 5662 5662 5662 5662
5634 5631 5629 5626 5623 5620 5617 5615 5614 5613 5612 5611 5610 5611 5611 5612 5613 5614 5615 5617 5619 5621 5623 5626 5628 5630 5632 5634 5636 5638 5640 5642 5643 5645 5646 5647 5647 5648 5648 5648 5648 5647 5646
5636 5633 5631 5628 5626 5623 5620 5618 5616 5614 5613 5612 5612 5611 5611 5611 5611 5612 5613 5614 5616 5617 5619 5620 5621 5623 5625 5626 5628 5629 5630 5631 5632 5633 5633 5634 5634 5634 5633 5633 5633 5631 5630
5637 5635 5633 5630 5628 5625 5623 5621 5619 5617 5615 5614 5613 5612 5611 5611 5611 5611 5611 5611 5612 5612 5613 5614 5615 5616 5617 5617 5618 5619 5619 5620 5620 5620 5620 5620 5620 5619 5618 5617 5616 5615 5613
5639 5636 5634 5632 5629 5627 5625 5623 5621 5619 5617 5616 5614 5613 5612 5611 5610 5610 5609 5608 5608 5608 5607 5608 5608 5608 5608 5608 5608 5608 5608 5608 5607 5606 5606 5605 5604 5603 5602 5601 5599 5597 5595
5639 5637 5635 5632 5630 5628 5626 5624 5622 5620 5618 5616 5615 5613 5612 5611 5609 5608 5606 5605 5604 5603 5602 5601 5600 5599 5599 5598 5597 5596 5595 5594 5593 5592 5590 5589 5588 5586 5585 5583 5581 5579 5576
5638 5636 5634 5632 5630 5628 5626 5624 5622 5620 5618 5616 5614 5612 5610 5608 5606 5605 5603 5601 5599 5597 5595 5593 5591 5589 5588 5586 5585 5583 5582 5580 5578 5576 5574 5572 5570 5569 5566 5564 5562 5559 5557
5637 5635 5633 5631 5629 5626 5624 5622 5620 5618 5616 5614 5612 5610 5607 5605 5602 5600 5597 5595 5592 5590 5587 5584 5581 5578 5576 5573 5571 5569 5567 5565 5562 5560 5556 5554 5551 5549 5545 5543 5540 5538 5535
5635 5633 5631 5628 5626 5624 5622 5620 5618 5616 5613 5611 5608 5606 5603 5600 5597 5594 5591 5588 5585 5582 5578 5574 5570 5567 5563 5560 5557 5553 5550 5548 5545 5542 5539 5535 5532 5528 5525 5521 5518 5515 5513
5633 5630 5628 5625 5623 5621 5618 5616 5614 5612 5609 5606 5604 5601 5597 5594 5591 5587 5583 5580 5576 5572 5567 5563 5558 5553 5549 5545 5541 5537 5533 5529 5526 5523 5519 5515 5510 5506 5502 5498 5495 5492 5490
5629 5627 5624 5622 5619 5617 5614 5612 5609 5606 5603 5601 5597 5594 5590 5586 5582 5578 5574 5569 5565 5560 5555 5550 5545 5540 5534 5529 5524 5519 5514 5510 5506 5501 5497 5492 5488 5483 5480 5476 5472 5469 5467
5624 5622 5619 5617 5614 5612 5609 5606 5603 5600 5597 5594 5590 5586 5582 5578 5573 5568 5563 5558 5553 5548 5543 5537 5531 5525 5519 5513 5507 5502 5496 5491 5486 5481 5476 5471 5466 5461 5458 5454 5451 5447 5444
5619 5616 5614 5611 5608 5606 5603 5600 5596 5593 5589 5586 5582 5577 5573 5568 5563 5557 5552 5546 5540 5534 5528 5522 5516 5510 5503 5496 5490 5484 5478 5473 5467 5461 5456 5451 5446 5441 5436 5432 5429 5426 5423
5613 5610 5607 5604 5601 5598 5595 5592 5588 5585 5581 5577 5572 5567 5563 5557 5551 5545 5539 5532 5526 5520 5513 5506 5500 5494 5487 5480 5474 5467 5461 5455 5448 5442 5437 5431 5426 5421 5416 5412 5409 5407 5404